Milford, UT

10:06 AM MST on December 04, 2016 (GMT -0700)
Milford Municipal

Weather History for KMLF - July, 2013

Change the Weather History Date:

Tuesday, July 23, 2013

  Actual Average Record
Temperature  
Mean Temperature 78 °F -  
Max Temperature 90 °F 91 °F 102 °F (2014)
Min Temperature 66 °F 56 °F 48 °F (2001)
Cooling Degree Days 13    
Growing Degree Days 28 (Base 50)    
Moisture  
Dew Point 48 °F    
Average Humidity 36    
Maximum Humidity 60    
Minimum Humidity 13    
Precipitation  
Precipitation 0.00 in - - ()
Sea Level Pressure  
Sea Level Pressure 29.91 in    
Wind  
Wind Speed 14 mph (SSW)    
Max Wind Speed 23 mph    
Max Gust Speed 37 mph    
Visibility 10 miles    
Events Rain    
Averages and records for this station are not official NWS values.
T = Trace of Precipitation, MM = Missing Value Source: NWS Daily Summary

Daily Weather History Graph

Daily Weather History Graph

Search for Another Location

Airport or City:

Trip Planner

Search our weather history database for the weather conditions in past years. The results will help you decide how hot, cold, wet, or windy it might be!

Date:

Astronomy

Jul. 23, 2013 Rise Set
Actual Time 6:26 AM MDT 8:49 PM MDT
Civil Twilight 5:56 AM MDT 9:19 PM MDT
Nautical Twilight 5:19 AM MDT 9:57 PM MDT
Astronomical Twilight 4:38 AM MDT 10:38 PM MDT
Moon 9:22 PM MDT (7/23) 7:38 AM MDT (7/23)
Length of Visible Light 15h 23m
Length of Day
14h 23m
Full, 99% of the Moon is Illuminated
Jul 23
Full
Jul 29
Last Quarter
Aug 6
New
Aug 14
First Quarter
Aug 20
Full

Hourly Weather History & Observations

Time (MDT) Temp. Dew Point Humidity Pressure Visibility Wind Dir Wind Speed Gust Speed Precip Events Conditions
12:52 AM 70.0 °F 51.1 °F 51% 29.85 in 10.0 mi SSW 21.9 mph 28.8 mph N/A   Clear
1:52 AM 66.9 °F 52.0 °F 59% 29.85 in 10.0 mi SW 10.4 mph - N/A   Clear
2:52 AM 69.1 °F 46.9 °F 45% 29.83 in 10.0 mi WSW 8.1 mph - N/A   Clear
3:52 AM 70.0 °F 46.9 °F 44% 29.85 in 10.0 mi SSW 13.8 mph - N/A   Clear
4:52 AM 68.0 °F 50.0 °F 52% 29.90 in 10.0 mi South 6.9 mph - N/A   Clear
5:52 AM 66.0 °F 51.1 °F 59% 29.95 in 10.0 mi SSW 10.4 mph - N/A   Clear
6:52 AM 66.0 °F 52.0 °F 60% 29.95 in 10.0 mi SSW 11.5 mph - N/A   Clear
7:52 AM 70.0 °F 51.1 °F 51% 29.96 in 10.0 mi SSW 11.5 mph - N/A   Clear
8:52 AM 73.9 °F 52.0 °F 46% 29.94 in 10.0 mi SSW 16.1 mph - N/A   Clear
9:52 AM 79.0 °F 52.0 °F 39% 29.93 in 10.0 mi South 18.4 mph - N/A   Clear
10:52 AM 82.0 °F 52.0 °F 35% 29.93 in 10.0 mi South 20.7 mph 28.8 mph N/A   Clear
11:52 AM 84.9 °F 51.1 °F 31% 29.92 in 10.0 mi SSW 15.0 mph 27.6 mph N/A   Clear
12:52 PM 84.9 °F 52.0 °F 32% 29.93 in 10.0 mi SSW 19.6 mph 25.3 mph N/A   Clear
1:52 PM 88.0 °F 51.1 °F 28% 29.90 in 10.0 mi SSW 15.0 mph - N/A   Clear
2:52 PM 84.9 °F 50.0 °F 30% 29.89 in 10.0 mi SSW 12.7 mph - N/A   Clear
3:52 PM 88.0 °F 45.0 °F 22% 29.86 in 10.0 mi South 10.4 mph - N/A   Clear
4:52 PM 86.0 °F 45.0 °F 24% 29.87 in 10.0 mi ESE 23.0 mph 28.8 mph N/A   Scattered Clouds
5:52 PM 82.9 °F 39.9 °F 22% 29.87 in 10.0 mi NE 20.7 mph 26.5 mph N/A   Mostly Cloudy
6:52 PM 84.0 °F 43.0 °F 24% 29.89 in 10.0 mi South 23.0 mph 36.8 mph N/A   Mostly Cloudy
7:06 PM 82.4 °F 46.4 °F 28% 30.09 in 10.0 mi South 20.7 mph 28.8 mph N/A   Mostly Cloudy
7:52 PM 82.9 °F 43.0 °F 24% 29.87 in 10.0 mi South 10.4 mph - N/A   Clear
8:52 PM 78.1 °F 44.1 °F 30% 29.87 in 10.0 mi SSW 9.2 mph - N/A   Clear
9:52 PM 75.9 °F 44.1 °F 32% 29.88 in 10.0 mi Variable 3.5 mph - N/A   Clear
10:52 PM 73.0 °F 48.9 °F 42% 29.91 in 10.0 mi ENE 5.8 mph - 0.00 in Rain Light Rain
11:19 PM 77.0 °F 44.6 °F 32% 30.11 in 10.0 mi SW 18.4 mph - 0.00 in   Scattered Clouds
11:40 PM 73.4 °F 48.2 °F 41% 30.11 in 10.0 mi SSE 10.4 mph - 0.00 in   Clear
11:52 PM 73.0 °F 48.9 °F 42% 29.88 in 10.0 mi South 6.9 mph - 0.00 in   Partly Cloudy